Notices

What's New in latest Release from April 7th, 2021:

- Updated Glossary, including Speed of Maximum Gust, and Total Hourly Precipitation

- Updated national and regional climate services offices contacts and prices information

- Addition of station inventory lists for 1981-2010, 1971-2000, and 1961-1990 Normals.

If you haven't already, please take our survey and provide feedback about our website: https://eccc.sondage-survey.ca/f/LanguageSelection.aspx?s=442ca660-fcf1-47c0-95a9-59707d6fd709

Hourly Data Report for April 10, 2012

MIRAMICHI RCS
NEW BRUNSWICK

47°00'34.000" N
65°27'54.000" W
33.00 m
8100989
71744
ACQ

Download Data

Hourly Data (April 2012)
Hourly Data Report for April 10, 2012
TIME
LST
Temp Definition
°C
Dew Point Definition
°C
Rel Hum Definition
%
Precip. Amount Definition
mm

Wind Dir Definition
10's deg

Wind Spd Definition
km/h
Visibility Definition
km
Stn Press Definition
kPa
Hmdx Definition


Wind Chill Definition


Weather Definition


00:00 2.0 1.4 96   25 6   99.26     LegendNANA
01:00 1.4 0.9 96   21 6   99.30     LegendNANA
02:00 0.4 -0.1 96   23 6   99.35     LegendNANA
03:00 1.0 0.5 96   25 9   99.41     LegendNANA
04:00 -0.6 -1.2 96   22 4   99.45   -2 LegendNANA
05:00 -0.3 -0.8 96   21 9   99.49   -3 LegendNANA
06:00 0.0 -0.5 96   21 9   99.55   -3 LegendNANA
07:00 0.1 -0.4 96   22 4   99.62     LegendNANA
08:00 0.9 0.4 96   23 4   99.66     LegendNANA
09:00 2.1 1.6 96   21 4   99.75     LegendNANA
10:00 3.6 3.0 96   16 2   99.78     LegendNANA
11:00 4.8 3.9 94   16 6   99.80     LegendNANA
12:00 6.2 4.3 88   26 6   99.80     LegendNANA
13:00 6.6 4.2 85   32 6   99.81     LegendNANA
14:00 9.0 5.0 76   25 9   99.78     LegendNANA
15:00 9.0 4.1 71   22 4   99.80     LegendNANA
16:00 8.9 3.0 66   31 7   99.81     LegendNANA
17:00 6.6 3.4 80   1 4   99.93     LegendNANA
18:00 6.9 4.3 83   15 7   99.94     LegendNANA
19:00 5.9 4.3 89   15 2   99.98     LegendNANA
20:00 5.1 4.2 94   10 4   100.07     LegendNANA
21:00 5.0 4.2 95   14 4   100.12     LegendNANA
22:00 4.0 3.0 93     0   100.16     LegendNANA
23:00 2.5 1.7 94   31 4   100.19     LegendNANA

Notes on Data Quality.

Legend

  • E = Estimated
  • M = Missing
  • NA = Not Available*
  • [empty] = Indicates an unobserved value
Date modified: